Skip Navigation Links
NOAA logo - Click to go to the NOAA homepage
NOAA's National Weather Service
Alaska Aviation Weather Unit
  NWS logo - Click to go to the NWS homepage
Left Navbar Graphic     18 AKDT = 02 GMT

   
NOAA is celebrating 200 years of science, service, and stewardship. Visit the NOAA 200th celebration Web site to learn more.
USA.gov is the U.S. Government's official Web portal to all Federal, state and local government Web resources and services.
Facebook
NWS on Facebook

Important Change Regarding the AAWU Web Presence

 

Over the last several months, the AAWU has been working to navigate its webpages to a nationally supported server. Security, as well as other needs, have necessitated the change.  In the process, we have made an effort to enhance the functionality of our website, as well as some of our products. As of June 20, 2017, aawu.arh.noaa.gov will be discontinued. The new AAWU web address is weather.gov/aawu. It is now live and will run in-parallel with the old site until it is discontinued. Please send any feedback or questions regarding the new webpages to nws.ar.aawu.webauthors@noaa.gov.  Thank you for your patience during this time of transition.
AAWU Home :: Display TAF Add Bookmark
TAF PAWG 242340Z 2500/2524 30004KT P6SM SCT030 BKN050
     FM251200 27004KT P6SM BKN040 OVC060
     FM251900 30006KT P6SM BKN050 OVC070
      AMD LTD TO CLD VIS AND WIND 2506/2515=
METAR PAWG 242056Z 00000KT 10SM SCT030 BKN050 BKN070 12/06 A3024=

PAWG 242150Z 30004KT 10SM SCT030 BKN050 BKN070 12/05 A3024=

METAR PAWG 242256Z 33003KT 10SM FEW037 BKN060 13/06 A3022=

PAWG 242350Z 30004KT 10SM FEW037 BKN060 13/04 A3021=

METAR PAWG 250056Z 29005KT 10SM FEW040 BKN070 13/04 A3020=

METAR PAWG 250156Z 26006KT 10SM FEW040 SCT070 14/04 A3018=


NOAA's National Weather Service
Alaska Aviation Weather Unit
6930 Sand Lake Road
Anchorage, AK 99502-1845
Disclaimer
Credits
Glossary
Privacy Policy
About Us
Career Opportunities
Contact AAWU Internet Services Site last modified: April, 17th 2012